Regional Weather Roundup
Issued by NWS

Home | Current Version | Previous Version | Text Only | Print | Product List | Glossary Off
Versions: 1 2 3 4 5 6 7 8 9 10 11 12 13 14 15 16 17 18 19 20 21 22 23 24 25 26 27 28 29 30 31 32 33 34 35 36 37 38 39 40 41 42 43 44 45 46 47 48 49 50

000
ASUS44 KMEG 250810
RWRTN
TENNESSEE HOURLY STATE WEATHER ROUNDUP
NATIONAL WEATHER SERVICE MEMPHIS TN
200 AM CST SUN JAN 25 2015

TNZ002-004-019-021-049-052-054-088>092-250900-
WEST TENNESSEE

CITY           SKY/WX    TMP DP  RH WIND       PRES   REMARKS
MEMPHIS INTL   CLEAR     38  32  79 S8        29.88F WCI  32
NWS MEMPHIS      N/A     40 N/A N/A MISG        N/A
JACKSON        PTCLDY    40  33  76 SW12      29.86S WCI  33
DYERSBURG      MOCLDY    39  23  52 S6        29.85S WCI  35
UNION CITY     CLEAR     36  34  93 S8        29.80F WCI  29
PARIS          CLEAR     36  30  80 SW8       29.83S WCI  29
LEXINGTON      CLEAR     34  30  86 S6        29.86R WCI  29
SAVANNAH       CLEAR     39  32  75 S8        29.90S WCI  34
$$

TNZ008-025-027-028-033-062-065-066-250900-
NORTH MIDDLE TENNESSEE

CITY           SKY/WX    TMP DP  RH WIND       PRES   REMARKS
NASHVILLE      PTCLDY    35  29  78 S7        29.87F WCI  29
CLARKSVILLE    PTCLDY    40  31  70 S9        29.82F WCI  34
SMYRNA         CLEAR     33  30  89 SE5       29.90S WCI  28
COOKEVILLE     CLEAR     34  28  80 S5        29.88F WCI  30
CROSSVILLE     CLEAR     32  27  81 SW5       29.88F WCI  27
$$

TNZ061-075-076-078-094-096-097-250900-
SOUTH MIDDLE TENNESSEE

CITY           SKY/WX    TMP DP  RH WIND       PRES   REMARKS
FAYETTEVILLE   CLEAR     32  27  80 N14G30    29.91F WCI  22
TULLAHOMA      CLEAR     32  27  80 S3        29.91F
WINCHESTER     CLEAR     28  27  93 CALM      29.93S
MCMINNVILLE    CLEAR     37  30  75 S3        29.90S
COLUMBIA         N/A     37  37 100 S10       29.87S WCI  30
SHELBYVILLE    CLEAR     34  30  86 S7        29.91S WCI  28
$$

TNZ017-018-042-046-047-250900-
NORTHEAST TENNESSEE

CITY           SKY/WX    TMP DP  RH WIND       PRES   REMARKS
TRI CITIES     CLEAR     28  26  92 CALM      29.89S
ELIZABETHTON   SUNNY     27  25  93 CALM      29.89R
$$

TNZ012-013-036-069-073-074-250900-
CENTRAL EAST TENNESSEE

CITY           SKY/WX    TMP DP  RH WIND       PRES   REMARKS
KNOXVILLE      CLEAR     33  27  78 SW8       29.92S WCI  26
OAK RIDGE      PTCLDY    30  26  85 CALM      29.93S
GATLINBURG     SUNNY     27  25  93 CALM      29.91S
MORRISTOWN     SUNNY     34  28  80 W3        29.90S
$$

TNZ083-085-099-250900-
SOUTHEAST TENNESSEE

CITY           SKY/WX    TMP DP  RH WIND       PRES   REMARKS
CHATTANOOGA    CLEAR     32  28  85 CALM      29.95R
$$

SKY/WX REPORTED AS FAIR MEANS FEW OR NO CLOUDS BELOW
12 THOUSAND FEET.




USA.gov is the U.S. government's official web portal to all federal, state and local government web resources and services.